• In Spain
  • List of Countries
  • For 7 days
  • Water Temperature
  • Satellite Maps
  • Weather Map
  • Weather Widgets
  • user-avatar
    Login

    Hourly Weather Korçe

    Today, 23 June, Saturday

    Time Temperature Precipitation Wind Pressure Humidity
    00:00 +14°C° 0 mm 1 mps 666 mmHg 91%
    01:00 +14°C° 0 mm 1 mps 666 mmHg 91%
    02:00 +13°C° 0 mm 1 mps 666 mmHg 91%
    03:00 +13°C° 0 mm 1 mps 666 mmHg 91%
    04:00 +13°C° 0 mm 1 mps 666 mmHg 91%
    05:00 +14°C° 0 mm 1 mps 666 mmHg 87%
    06:00 +16°C° 0 mm 1 mps 667 mmHg 83%
    07:00 +18°C° 0 mm 1 mps 667 mmHg 80%
    08:00 +18°C° 1 mm 1 mps 667 mmHg 80%
    09:00 +17°C° 1 mm 2 mps 667 mmHg 81%
    10:00 +16°C° 1 mm 2 mps 668 mmHg 82%
    11:00 +16°C° 0.9 mm 2 mps 668 mmHg 80%
    12:00 +16°C° 0.9 mm 2 mps 668 mmHg 79%
    13:00 +16°C° 0.9 mm 2 mps 668 mmHg 77%
    14:00 +17°C° 0 mm 2 mps 667 mmHg 74%
    15:00 +18°C° 0 mm 2 mps 667 mmHg 71%
    16:00 +18°C° 0 mm 2 mps 667 mmHg 67%
    17:00 +17°C° 0 mm 2 mps 667 mmHg 71%
    18:00 +16°C° 0 mm 2 mps 667 mmHg 75%
    19:00 +15°C° 0 mm 1 mps 667 mmHg 79%
    20:00 +14°C° 0 mm 2 mps 667 mmHg 80%
    21:00 +13°C° 0 mm 2 mps 667 mmHg 81%
    22:00 +12°C° 0 mm 2 mps 667 mmHg 82%
    23:00 +12°C° 0 mm 2 mps 667 mmHg 80%

    Tomorrow, 24 June, Sunday

    Time Temperature Precipitation Wind Pressure Humidity
    00:00 +10°C° 0 mm 2 mps 667 mmHg 79%
    01:00 +10°C° 0 mm 2 mps 667 mmHg 77%
    02:00 +9°C° 0 mm 2 mps 666 mmHg 76%
    03:00 +9°C° 0 mm 2 mps 666 mmHg 75%
    04:00 +9°C° 0 mm 2 mps 666 mmHg 73%
    05:00 +10°C° 0 mm 2 mps 666 mmHg 70%
    06:00 +13°C° 0 mm 2 mps 667 mmHg 66%
    07:00 +14°C° 0 mm 2 mps 667 mmHg 63%
    08:00 +16°C° 0 mm 2 mps 668 mmHg 59%
    09:00 +18°C° 0 mm 2 mps 668 mmHg 56%
    10:00 +19°C° 0 mm 2 mps 669 mmHg 53%
    11:00 +19°C° 0.2 mm 2 mps 669 mmHg 54%
    12:00 +20°C° 0.2 mm 2 mps 668 mmHg 55%
    13:00 +20°C° 0.2 mm 2 mps 668 mmHg 55%
    14:00 +21°C° 0.3 mm 1 mps 668 mmHg 56%
    15:00 +21°C° 0.3 mm 1 mps 668 mmHg 57%
    16:00 +21°C° 0.3 mm 1 mps 668 mmHg 58%
    17:00 +19°C° 0.2 mm 1 mps 667 mmHg 63%
    18:00 +18°C° 0.2 mm 1 mps 667 mmHg 68%
    19:00 +16°C° 0.2 mm 1 mps 667 mmHg 74%
    20:00 +15°C° 0 mm 1 mps 667 mmHg 75%
    21:00 +14°C° 0 mm 1 mps 667 mmHg 77%
    22:00 +14°C° 0 mm 1 mps 667 mmHg 79%
    23:00 +13°C° 0 mm 2 mps 667 mmHg 79%

    Day after tomorrow, 25 June, Monday

    Time Temperature Precipitation Wind Pressure Humidity
    00:00 +13°C° 0 mm 2 mps 666 mmHg 80%
    01:00 +12°C° 0 mm 2 mps 666 mmHg 81%
    02:00 +12°C° 0 mm 2 mps 666 mmHg 82%
    03:00 +12°C° 0 mm 2 mps 666 mmHg 82%
    04:00 +12°C° 0 mm 2 mps 665 mmHg 82%
    05:00 +13°C° 0 mm 2 mps 666 mmHg 80%
    06:00 +14°C° 0 mm 2 mps 666 mmHg 78%
    07:00 +15°C° 0 mm 2 mps 666 mmHg 75%
    08:00 +15°C° 0.2 mm 2 mps 667 mmHg 73%
    09:00 +16°C° 0.2 mm 2 mps 667 mmHg 71%
    10:00 +17°C° 0.2 mm 2 mps 667 mmHg 69%
    11:00 +17°C° 0.6 mm 2 mps 667 mmHg 70%
    12:00 +17°C° 0.6 mm 2 mps 667 mmHg 71%
    13:00 +17°C° 0.6 mm 2 mps 667 mmHg 73%
    14:00 +17°C° 0.9 mm 2 mps 666 mmHg 74%
    15:00 +16°C° 0.9 mm 2 mps 666 mmHg 76%
    16:00 +16°C° 0.9 mm 2 mps 666 mmHg 78%
    17:00 +15°C° 0.7 mm 2 mps 666 mmHg 81%
    18:00 +15°C° 0.7 mm 2 mps 666 mmHg 84%
    19:00 +14°C° 0.7 mm 2 mps 666 mmHg 88%
    20:00 +14°C° 0.4 mm 2 mps 666 mmHg 89%
    21:00 +13°C° 0.4 mm 2 mps 666 mmHg 90%
    22:00 +13°C° 0.4 mm 2 mps 666 mmHg 91%
    23:00 +12°C° 0.2 mm 2 mps 665 mmHg 90%

    26 June, Tuesday

    Time Temperature Precipitation Wind Pressure Humidity
    00:00 +12°C° 0.2 mm 2 mps 665 mmHg 90%
    01:00 +12°C° 0.2 mm 2 mps 665 mmHg 90%
    02:00 +12°C° 0.6 mm 2 mps 665 mmHg 90%
    03:00 +12°C° 0.6 mm 2 mps 664 mmHg 90%
    04:00 +12°C° 0.6 mm 2 mps 664 mmHg 91%
    05:00 +12°C° 0.5 mm 2 mps 664 mmHg 89%
    06:00 +13°C° 0.5 mm 2 mps 665 mmHg 88%
    07:00 +13°C° 0.5 mm 2 mps 665 mmHg 87%
    08:00 +13°C° 0.4 mm 3 mps 665 mmHg 83%
    09:00 +14°C° 0.4 mm 3 mps 665 mmHg 78%
    10:00 +16°C° 0.4 mm 3 mps 665 mmHg 74%
    11:00 +14°C° 0.9 mm 3 mps 665 mmHg 76%
    12:00 +15°C° 0.9 mm 2 mps 664 mmHg 78%
    13:00 +15°C° 0.9 mm 2 mps 664 mmHg 81%
    14:00 +15°C° 1 mm 2 mps 664 mmHg 81%
    15:00 +15°C° 1 mm 2 mps 664 mmHg 82%
    16:00 +15°C° 1 mm 2 mps 664 mmHg 82%
    17:00 +14°C° 1.4 mm 2 mps 664 mmHg 85%
    18:00 +14°C° 1.4 mm 2 mps 664 mmHg 87%
    19:00 +13°C° 1.4 mm 2 mps 664 mmHg 90%
    20:00 +13°C° 0.4 mm 2 mps 664 mmHg 90%
    21:00 +13°C° 0.4 mm 2 mps 664 mmHg 91%
    22:00 +13°C° 0.4 mm 2 mps 664 mmHg 91%
    23:00 +13°C° 0.4 mm 2 mps 664 mmHg 91%

    27 June, Wednesday

    Time Temperature Precipitation Wind Pressure Humidity
    00:00 +13°C° 0.4 mm 2 mps 664 mmHg 91%
    01:00 +13°C° 0.4 mm 2 mps 664 mmHg 91%
    02:00 +13°C° 0.3 mm 2 mps 664 mmHg 91%
    03:00 +13°C° 0.3 mm 2 mps 664 mmHg 91%
    04:00 +13°C° 0.3 mm 2 mps 664 mmHg 91%
    05:00 +14°C° 0.3 mm 2 mps 664 mmHg 90%
    06:00 +14°C° 0.3 mm 2 mps 664 mmHg 89%
    07:00 +15°C° 0.3 mm 2 mps 665 mmHg 87%
    08:00 +14°C° 0.4 mm 3 mps 665 mmHg 84%
    09:00 +16°C° 0.4 mm 3 mps 665 mmHg 81%
    10:00 +16°C° 0.4 mm 3 mps 666 mmHg 78%
    11:00 +16°C° 0.8 mm 3 mps 666 mmHg 79%
    12:00 +16°C° 0.8 mm 3 mps 666 mmHg 80%
    13:00 +16°C° 0.8 mm 3 mps 666 mmHg 81%
    14:00 +16°C° 0.2 mm 3 mps 666 mmHg 80%
    15:00 +16°C° 0.2 mm 3 mps 666 mmHg 80%
    16:00 +17°C° 0.2 mm 3 mps 666 mmHg 79%
    17:00 +16°C° 0.1 mm 3 mps 666 mmHg 82%
    18:00 +15°C° 0.1 mm 2 mps 666 mmHg 84%
    19:00 +15°C° 0.1 mm 2 mps 666 mmHg 87%
    20:00 +14°C° 0.1 mm 2 mps 666 mmHg 87%
    21:00 +14°C° 0.1 mm 2 mps 666 mmHg 88%
    22:00 +13°C° 0.1 mm 2 mps 667 mmHg 88%
    23:00 +13°C° 0.1 mm 2 mps 666 mmHg 88%

    28 June, Thursday

    Time Temperature Precipitation Wind Pressure Humidity
    00:00 +13°C° 0.1 mm 2 mps 666 mmHg 88%
    01:00 +13°C° 0.1 mm 2 mps 666 mmHg 88%
    02:00 +13°C° 0.1 mm 2 mps 666 mmHg 88%
    03:00 +13°C° 0.1 mm 2 mps 666 mmHg 88%
    04:00 +13°C° 0.1 mm 2 mps 666 mmHg 88%
    05:00 +14°C° 0.1 mm 2 mps 666 mmHg 85%
    06:00 +15°C° 0.1 mm 2 mps 666 mmHg 82%
    07:00 +16°C° 0.1 mm 3 mps 667 mmHg 79%
    08:00 +17°C° 0 mm 3 mps 667 mmHg 74%
    09:00 +18°C° 0 mm 3 mps 667 mmHg 69%
    10:00 +19°C° 0 mm 3 mps 668 mmHg 63%
    11:00 +19°C° 0.1 mm 3 mps 668 mmHg 63%
    12:00 +19°C° 0.1 mm 3 mps 668 mmHg 63%
    13:00 +20°C° 0.1 mm 3 mps 668 mmHg 63%
    14:00 +19°C° 0.3 mm 3 mps 668 mmHg 66%
    15:00 +18°C° 0.3 mm 3 mps 668 mmHg 69%
    16:00 +17°C° 0.3 mm 3 mps 667 mmHg 72%
    17:00 +17°C° 0.1 mm 2 mps 667 mmHg 75%
    18:00 +16°C° 0.1 mm 2 mps 667 mmHg 78%
    19:00 +15°C° 0.1 mm 2 mps 667 mmHg 82%
    20:00 +14°C° 0.1 mm 2 mps 667 mmHg 83%
    21:00 +14°C° 0.1 mm 2 mps 667 mmHg 83%
    22:00 +13°C° 0.1 mm 2 mps 667 mmHg 84%
    23:00 +13°C° 0 mm 2 mps 667 mmHg 85%
    Show more